Regional Weather Roundup
Issued by NWS

Home | Current Version | Previous Version | Text Only | Print | Product List | Glossary Off
Versions: 1 2 3 4 5 6 7 8 9 10 11 12 13 14 15 16 17 18 19 20 21 22 23 24 25 26 27 28 29 30 31 32 33 34 35 36 37 38 39 40 41 42 43 44 45 46 47 48 49 50

000
ASUS43 KLMK 032202
RWRKY
KENTUCKY REGIONAL WEATHER ROUNDUP
NATIONAL WEATHER SERVICE LOUISVILLE KY
600 PM EDT TUE MAY 03 2016

NOTE "FAIR" INDICATES FEW OR NO CLOUDS BELOW 12,000 FEET
WITH NO SIGNIFICANT WEATHER AND/OR OBSTRUCTIONS TO VISIBILITY.

KYZ001>023-026-027-061>063-070>075-032300-
WESTERN AND SOUTH CENTRAL KENTUCKY

CITY           SKY/WX    TMP DP  RH WIND       PRES   REMARKS
PADUCAH        CLOUDY    63  45  51 NW7       29.95F
HENDERSON      MOSUNNY   64  43  45 W9        29.92F
OWENSBORO      CLOUDY    62  45  53 NW8       29.93F
HOPKINSVILLE   PTSUNNY   62  47  58 NW8       29.94S
BOWLING GREEN  CLOUDY    63  44  50 NW9       29.92F
GLASGOW        NOT AVBL
$$

KYZ024-025-028>034-038-045-046-053-032300-
NORTH CENTRAL KENTUCKY

CITY           SKY/WX    TMP DP  RH WIND       PRES   REMARKS
LOUISVILLE/SDF CLOUDY    62  46  55 NW14G21   29.90S
LOUISVILLE/LOU CLOUDY    61  46  57 NW9       29.91S
FORT KNOX      CLOUDY    59  44  58 W12       29.90R
$$

KYZ035>037-039>044-047>052-055>060-089>105-032300-
NORTHEAST KENTUCKY

CITY           SKY/WX    TMP DP  RH WIND       PRES   REMARKS
LEXINGTON      CLOUDY    60  45  57 W8        29.89S
COVINGTON      CLOUDY    56  48  74 W8        29.88S
FRANKFORT      CLOUDY    62  47  57 NW10      29.88S
$$

KYZ054-064>069-076>088-106>120-032300-
SOUTHEAST KENTUCKY

CITY           SKY/WX    TMP DP  RH WIND       PRES   REMARKS
JACKSON        CLOUDY    59  45  59 W7        29.88S
LONDON         CLOUDY    64  47  53 W10       29.89S
SOMERSET       NOT AVBL
MIDDLESBORO    NOT AVBL
MONTICELLO     CLOUDY    62  49  62 NW10G20   29.92S
$$




USA.gov is the U.S. government's official web portal to all federal, state and local government web resources and services.